EW6956 Weather Reports


time (UTC)temp
C
wind
direction
speed
KPH
gust
KPH
rain 1hr
cm
rain 24hr
cm
rain mn
cm
humidity
%
barometer
mb
20260510094603 13 44 0.0 0.0 0.00 0.00 0.00 1 1012.2
20260510093058 13 44 0.0 0.0 0.00 0.00 0.00 1 1012.2
20260510091545 13 44 0.0 0.0 0.00 0.00 0.00 1 1012.2
20260510090048 13 44 0.0 0.0 0.00 0.00 0.00 1 1012.2
20260510084551 13 44 0.0 0.0 0.00 0.00 0.00 1 1012.3
20260510083033 13 44 0.0 0.0 0.00 0.00 0.00 1 1012.2
20260510081538 13 44 0.0 0.0 0.00 0.00 0.00 1 1012.1
20260510080029 13 44 0.0 0.0 0.00 0.00 0.00 1 1011.9
20260510074520 13 44 0.0 0.0 0.00 0.00 0.00 1 1011.9
20260510073015 13 44 0.0 0.0 0.00 0.00 0.00 1 1011.5
20260510071512 13 44 0.0 0.0 0.00 0.00 0.00 1 1011.5
20260510070012 13 44 0.0 0.0 0.00 0.00 0.00 1 1011.9
20260510064506 13 44 0.0 0.0 0.00 0.00 0.00 1 1011.7
20260510063058 13 44 0.0 0.0 0.00 0.00 0.00 1 1011.8
20260510061555 13 44 0.0 0.0 0.00 0.00 0.00 1 1011.8
20260510060053 13 44 0.0 0.0 0.00 0.00 0.00 1 1012.0
20260510054544 13 44 0.0 0.0 0.00 0.00 0.00 1 1012.1
20260510053041 13 44 0.0 0.0 0.00 0.00 0.00 1 1011.9
20260510051535 13 44 0.0 0.0 0.00 0.00 0.00 4 1011.8
20260510050036 13 44 0.0 0.0 0.00 0.00 0.00 5 1011.7
20260510044532 13 44 0.0 0.0 0.00 0.03 0.00 10 1011.3
20260510043023 14 44 0.0 0.0 0.00 0.03 0.00 10 1011.2
20260510041518 14 44 0.0 0.0 0.00 0.03 0.00 15 1011.0
20260510040013 14 44 0.0 0.0 0.00 0.03 0.00 20 1010.9
20260510034509 15 44 0.0 0.0 0.00 0.03 0.00 28 1010.9
20260510033005 15 44 0.0 0.0 0.00 0.03 0.00 30 1011.0
20260510031624 15 44 0.0 0.0 0.00 0.03 0.00 34 1010.6
20260510024552 16 44 0.0 0.0 0.00 0.03 0.00 40 1010.2
20260510023047 16 44 0.0 0.0 0.00 0.03 0.00 44 1009.7
20260510021543 17 44 0.0 0.0 0.00 0.03 0.00 49 1009.5
20260510020044 17 44 0.0 0.0 0.00 0.03 0.00 53 1009.3
20260510014540 18 44 0.0 0.0 0.00 0.03 0.00 57 1009.0
20260510013031 19 44 0.0 0.0 0.00 0.03 0.00 60 1008.8
20260510011539 20 44 0.0 1.6 0.00 0.03 0.00 62 1008.8
20260510010030 21 18 0.0 1.6 0.00 0.03 0.00 61 1008.6
20260510004529 22 19 0.0 0.0 0.00 0.03 0.00 61 1008.3
20260510003030 23 360 0.0 1.6 0.00 0.03 0.00 58 1008.2
20260510001529 24 319 0.0 1.6 0.00 0.03 0.00 52 1008.1
20260510000053 25 319 0.0 0.0 0.00 0.03 0.00 47 1008.1
20260509234544 25 318 0.0 0.0 0.00 0.03 0.00 48 1008.0
20260509233031 26 97 0.0 1.6 0.00 0.03 0.00 47 1007.9
20260509231527 27 96 0.0 0.0 0.00 0.03 0.00 40 1008.0
20260509230022 27 115 0.0 0.0 0.00 0.03 0.00 38 1007.9
20260509224519 27 114 0.0 0.0 0.00 0.03 0.00 40 1008.0
20260509223015 28 86 0.0 0.0 0.00 0.03 0.00 32 1008.0
20260509221509 28 86 0.0 0.0 0.00 0.03 0.00 31 1007.8
20260509220004 28 217 0.0 0.0 0.00 0.03 0.00 29 1007.9
20260509214605 30 168 0.0 0.0 0.00 0.03 0.00 30 1007.8
20260509213057 29 190 0.0 0.0 0.00 0.03 0.00 27 1007.8
20260509211551 29 214 0.0 0.0 0.00 0.03 0.00 29 1008.0
20260509210053 29 198 0.0 0.0 0.00 0.03 0.00 30 1008.1
20260509204550 28 55 0.0 0.0 0.00 0.03 0.00 30 1008.2
20260509203039 28 164 0.0 0.0 0.00 0.03 0.00 30 1008.3
20260509201538 28 320 0.0 1.6 0.00 0.03 0.00 28 1008.6
20260509200034 28 180 0.0 3.2 0.00 0.03 0.00 30 1008.9
20260509194528 28 176 0.0 1.6 0.00 0.03 0.00 29 1008.9
20260509193026 28 96 0.0 1.6 0.00 0.03 0.00 29 1009.0
20260509191521 28 360 0.0 1.6 0.00 0.03 0.00 26 1009.2
20260509190012 28 71 0.0 0.0 0.00 0.03 0.00 31 1009.3
20260509184507 28 19 0.0 1.6 0.00 0.03 0.00 28 1009.4
20260509183009 27 52 0.0 0.0 0.00 0.03 0.00 28 1009.4
20260509181622 27 60 0.0 0.0 0.00 0.03 0.00 31 1009.3
20260509180055 27 167 0.0 0.0 0.00 0.03 0.00 41 1009.3
20260509174551 26 167 0.0 0.0 0.00 0.03 0.00 45 1009.4
20260509173058 26 167 0.0 0.0 0.00 0.03 0.00 53 1009.6
20260509171542 26 157 0.0 0.0 0.00 0.03 0.00 52 1009.9
20260509170039 25 177 0.0 1.6 0.00 0.03 0.00 56 1009.8
20260509164533 25 184 0.0 0.0 0.00 0.03 0.00 58 1009.9
20260509163028 23 219 0.0 1.6 0.00 0.03 0.00 59 1010.0
20260509161526 23 188 0.0 0.0 0.00 0.03 0.00 60 1010.0
20260509160020 22 192 0.0 0.0 0.00 0.03 0.00 60 1010.0
20260509154517 22 38 0.0 1.6 0.00 0.03 0.00 60 1010.0
20260509153027 22 126 0.0 0.0 0.00 0.03 0.00 60 1010.0
20260509151505 22 258 0.0 0.0 0.00 0.03 0.00 58 1009.9
20260509150001 21 107 0.0 0.0 0.00 0.03 0.00 59 1010.0
20260509144609 20 166 0.0 0.0 0.00 0.03 0.00 58 1010.1
20260509143117 20 180 0.0 1.6 0.00 0.03 0.00 58 1010.1
20260509141548 20 233 0.0 0.0 0.00 0.03 0.00 54 1010.1
20260509140045 18 233 0.0 0.0 0.00 0.03 0.00 50 1010.0
20260509134559 17 233 0.0 0.0 0.00 0.03 0.00 45 1009.9
20260509133043 16 233 0.0 0.0 0.00 0.03 0.00 40 1009.9
20260509131531 15 233 0.0 0.0 0.00 0.03 0.00 29 1009.8
20260509130030 15 233 0.0 0.0 0.00 0.03 0.00 18 1009.9
20260509124522 13 232 0.0 0.0 0.00 0.03 0.00 1 1009.7
20260509123019 12 232 0.0 0.0 0.00 0.03 0.00 1 1009.7
20260509121527 11 232 0.0 0.0 0.00 0.03 0.00 1 1009.6
20260509120010 11 232 0.0 0.0 0.00 0.03 0.00 1 1009.4
20260509114518 10 232 0.0 0.0 0.00 0.03 0.00 1 1009.1
20260509113109 10 232 0.0 0.0 0.00 0.03 0.00 1 1008.9
20260509111605 11 231 0.0 0.0 0.00 0.03 0.00 1 1008.7
20260509110051 11 231 0.0 0.0 0.00 0.03 0.00 1 1008.7
20260509104549 11 229 0.0 0.0 0.00 0.03 0.00 1 1008.7
20260509103054 11 229 0.0 0.0 0.00 0.03 0.00 1 1008.6
20260509101606 11 229 0.0 0.0 0.00 0.03 0.00 1 1008.4
20260509100040 11 229 0.0 0.0 0.00 0.03 0.00 1 1008.4